Voltar ao catálogo

COSMOS 1930

AtivoMilitarLEO
NORAD 18943·PAYLOAD·🇷🇺 Russia

Lançado Mar 11, 1988 de Plesetsk Cosmodrome

Loading…

Próximas Passagens (próximas 24 horas)

TLE

AtualizadoSource: Space-Track

Época: Sep 14, 2026, 21:29 UTC

1 18943U 88016G   26257.89556797 -.00000006  00000-0  62381-4 0  9997
2 18943  74.0062 311.2890 0030108 322.5192 213.7491 12.56642235766705

Acompanhe COSMOS 1930 em tempo real com AllMySat

Download on the App Store